NGN4G EDDN-ENCN

Flight info

Callsign NGN4G
Flight time 1h 31m
Altitude 30000
Route ERETO1G ERETO DCT LONLI M726 LASTO M852 LARET/N0455F360 M852 DENIX DCT ATTUS P992 BAVTA/N0456F370 M609 RASVI
Aircraft A320/M-SDE3FGHIRWY/LB1

Departure

Time 2026-04-26 20:45
Airport Nuremberg Airport (EDDN)

Arrival

Time 2026-04-26 22:16
Airport Kristiansand Airport (ENCN)
Time Latitude Longitude Altitude Speed Heading
2026-04-26 20:02 49.49551 11.07456 1025 ft 0 kts 188°
2026-04-26 20:33 49.49563 11.07460 1025 ft 2 kts 201°
2026-04-26 20:33 49.49574 11.07468 1025 ft 2 kts 211°
2026-04-26 20:34 49.49587 11.07482 1025 ft 2 kts 224°
2026-04-26 20:34 49.49596 11.07500 1026 ft 2 kts 238°
2026-04-26 20:34 49.49603 11.07521 1026 ft 2 kts 250°
2026-04-26 20:34 49.49607 11.07543 1026 ft 2 kts 263°
2026-04-26 20:35 49.49607 11.07566 1026 ft 2 kts 276°
2026-04-26 20:35 49.49605 11.07584 1026 ft 0 kts 280°
2026-04-26 20:35 49.49604 11.07586 1026 ft 0 kts 279°
2026-04-26 20:38 49.49602 11.07570 1026 ft 1 kts 210°
2026-04-26 20:38 49.49593 11.07575 1026 ft 1 kts 133°
2026-04-26 20:39 49.49590 11.07597 1026 ft 2 kts 94°
2026-04-26 20:39 49.49589 11.07616 1026 ft 2 kts 89°
2026-04-26 20:39 49.49590 11.07668 1027 ft 6 kts 89°
2026-04-26 20:39 49.49587 11.07756 1027 ft 9 kts 97°
2026-04-26 20:40 49.49577 11.07860 1028 ft 10 kts 98°
2026-04-26 20:40 49.49563 11.07998 1029 ft 15 kts 98°
2026-04-26 20:40 49.49547 11.08166 1030 ft 15 kts 98°
2026-04-26 20:40 49.49535 11.08290 1032 ft 8 kts 91°
2026-04-26 20:41 49.49562 11.08345 1032 ft 6 kts 24°
2026-04-26 20:41 49.49604 11.08382 1032 ft 9 kts 56°
2026-04-26 20:41 49.49610 11.08485 1034 ft 10 kts 96°
2026-04-26 20:41 49.49594 11.08647 1036 ft 20 kts 98°
2026-04-26 20:42 49.49576 11.08850 1039 ft 17 kts 98°
2026-04-26 20:42 49.49559 11.09027 1042 ft 15 kts 99°
2026-04-26 20:42 49.49543 11.09185 1044 ft 13 kts 98°
2026-04-26 20:42 49.49532 11.09322 1046 ft 12 kts 85°
2026-04-26 20:43 49.49569 11.09430 1048 ft 10 kts 53°
2026-04-26 20:43 49.49598 11.09492 1049 ft 0 kts 54°
2026-04-26 20:44 49.49600 11.09497 1049 ft 3 kts 54°
2026-04-26 20:44 49.49638 11.09555 1050 ft 9 kts 27°
2026-04-26 20:44 49.49693 11.09528 1050 ft 10 kts 300°
2026-04-26 20:44 49.49710 11.09410 1048 ft 12 kts 276°
2026-04-26 20:45 49.49744 11.09078 1043 ft 67 kts 278°
2026-04-26 20:45 49.49851 11.07993 1030 ft 136 kts 279°
2026-04-26 20:45 49.49984 11.06414 1500 ft 145 kts 277°
2026-04-26 20:45 49.50118 11.04918 2148 ft 145 kts 279°
2026-04-26 20:46 49.50270 11.03383 2688 ft 151 kts 280°
2026-04-26 20:46 49.50436 11.01716 3095 ft 164 kts 280°
2026-04-26 20:46 49.50613 10.99912 3416 ft 180 kts 280°
2026-04-26 20:46 49.50809 10.97913 3725 ft 198 kts 280°
2026-04-26 20:47 49.51037 10.95734 4066 ft 218 kts 285°
2026-04-26 20:47 49.51190 10.94979 4199 ft 223 kts 295°
2026-04-26 20:47 49.53287 10.92466 4877 ft 253 kts 352°
2026-04-26 20:47 49.55059 10.92478 5650 ft 258 kts
2026-04-26 20:48 49.56858 10.92590 6393 ft 261 kts
2026-04-26 20:48 49.58661 10.92647 6997 ft 264 kts 360°
2026-04-26 20:48 49.60494 10.92690 7835 ft 268 kts 359°
2026-04-26 20:48 49.62339 10.92735 8717 ft 269 kts 359°
2026-04-26 20:49 49.64218 10.92780 9537 ft 272 kts 359°
2026-04-26 20:49 49.66118 10.92827 10327 ft 275 kts 359°
2026-04-26 20:49 49.68026 10.92879 10942 ft 285 kts
2026-04-26 20:49 49.70043 10.93460 11287 ft 306 kts 18°
2026-04-26 20:50 49.71961 10.95130 11604 ft 328 kts 36°
2026-04-26 20:50 49.73526 10.97155 11877 ft 344 kts 39°
2026-04-26 20:50 49.74852 10.98949 12093 ft 356 kts 39°
2026-04-26 20:50 49.76754 11.01533 12388 ft 372 kts 39°
2026-04-26 20:51 49.78712 11.04164 12808 ft 381 kts 39°
2026-04-26 20:51 49.80730 11.06860 13569 ft 381 kts 38°
2026-04-26 20:51 49.82659 11.09635 14263 ft 384 kts 44°
2026-04-26 20:51 49.84336 11.12891 14854 ft 391 kts 54°
2026-04-26 20:52 49.85686 11.16553 15425 ft 396 kts 61°
2026-04-26 20:52 49.86884 11.20415 15987 ft 400 kts 63°
2026-04-26 20:52 49.88047 11.24281 16541 ft 403 kts 62°
2026-04-26 20:52 49.89389 11.28098 17069 ft 404 kts 50°
2026-04-26 20:53 49.91407 11.31055 17588 ft 400 kts 30°
2026-04-26 20:53 49.93907 11.32808 18132 ft 397 kts 12°
2026-04-26 20:53 49.96649 11.33247 18619 ft 395 kts 354°
2026-04-26 20:53 49.99292 11.32343 19089 ft 394 kts 336°
2026-04-26 20:54 50.01643 11.30203 19567 ft 394 kts 321°
2026-04-26 20:54 50.03765 11.27487 20078 ft 396 kts 319°
2026-04-26 20:54 50.05958 11.24956 20520 ft 400 kts 329°
2026-04-26 20:54 50.08534 11.23293 20996 ft 405 kts 343°
2026-04-26 20:55 50.11361 11.22620 21468 ft 410 kts 355°
2026-04-26 20:55 50.14194 11.22588 21948 ft 412 kts 358°
2026-04-26 20:55 50.17086 11.22627 22391 ft 414 kts 358°
2026-04-26 20:55 50.19945 11.22673 22817 ft 416 kts 358°
2026-04-26 20:56 50.22837 11.22709 23250 ft 418 kts 358°
2026-04-26 20:56 50.25765 11.22737 23675 ft 420 kts 358°
2026-04-26 20:56 50.28669 11.22757 24089 ft 422 kts 358°
2026-04-26 20:56 50.31614 11.22774 24474 ft 424 kts 358°
2026-04-26 20:57 50.34591 11.22767 24883 ft 426 kts 356°
2026-04-26 20:57 50.37547 11.22552 25275 ft 427 kts 353°
2026-04-26 20:57 50.40487 11.22159 25654 ft 428 kts 352°
2026-04-26 20:57 50.43455 11.21713 26029 ft 430 kts 352°
2026-04-26 20:58 50.46434 11.21255 26387 ft 432 kts 352°
2026-04-26 20:58 50.49419 11.20797 26734 ft 433 kts 352°
2026-04-26 20:58 50.52422 11.20339 27085 ft 435 kts 352°
2026-04-26 20:58 50.55423 11.19883 27409 ft 436 kts 352°
2026-04-26 20:59 50.58462 11.19422 27737 ft 437 kts 352°
2026-04-26 20:59 50.61492 11.18963 28157 ft 436 kts 352°
2026-04-26 20:59 50.64527 11.18503 28607 ft 434 kts 352°
2026-04-26 20:59 50.67487 11.18054 29033 ft 432 kts 352°
2026-04-26 21:00 50.70471 11.17600 29465 ft 431 kts 352°
2026-04-26 21:00 50.73449 11.17146 29885 ft 429 kts 352°
2026-04-26 21:00 50.76406 11.16693 30280 ft 428 kts 352°
2026-04-26 21:00 50.79348 11.16242 30660 ft 427 kts 352°
2026-04-26 21:01 50.82299 11.15789 31017 ft 426 kts 352°
2026-04-26 21:01 50.85226 11.15340 31365 ft 425 kts 352°
2026-04-26 21:01 50.88135 11.14893 31709 ft 424 kts 352°
2026-04-26 21:01 50.91061 11.14444 32056 ft 423 kts 352°
2026-04-26 21:02 50.93967 11.13997 32410 ft 421 kts 352°
2026-04-26 21:02 50.96885 11.13546 32759 ft 419 kts 352°
2026-04-26 21:02 50.99771 11.13101 33085 ft 418 kts 351°
2026-04-26 21:02 51.02661 11.12655 33406 ft 418 kts 351°
2026-04-26 21:03 51.05521 11.12171 33728 ft 415 kts 349°
2026-04-26 21:03 51.08379 11.11471 34045 ft 413 kts 346°
2026-04-26 21:03 51.11153 11.10554 34345 ft 411 kts 344°
2026-04-26 21:03 51.13802 11.09456 34626 ft 409 kts 341°
2026-04-26 21:04 51.16562 11.08070 34868 ft 409 kts 339°
2026-04-26 21:04 51.19204 11.06496 35058 ft 409 kts 336°
2026-04-26 21:04 51.21823 11.04717 35226 ft 409 kts 334°
2026-04-26 21:04 51.24214 11.03025 35375 ft 410 kts 334°
2026-04-26 21:05 51.26833 11.01152 35549 ft 411 kts 334°
2026-04-26 21:05 51.29448 10.99280 35727 ft 411 kts 335°
2026-04-26 21:05 51.32130 10.97535 35875 ft 413 kts 337°
2026-04-26 21:05 51.34849 10.96019 36024 ft 414 kts 340°
2026-04-26 21:06 51.37625 10.94722 36172 ft 416 kts 343°
2026-04-26 21:06 51.40440 10.93654 36285 ft 418 kts 346°
2026-04-26 21:06 51.43315 10.92810 36293 ft 419 kts 348°
2026-04-26 21:07 51.49166 10.91801 36292 ft 420 kts 352°
2026-04-26 21:07 51.55001 10.91112 36282 ft 420 kts 353°
2026-04-26 21:08 51.60860 10.90431 36277 ft 420 kts 353°
2026-04-26 21:08 51.66695 10.89742 36277 ft 420 kts 353°
2026-04-26 21:09 51.72481 10.88843 36274 ft 419 kts 351°
2026-04-26 21:09 51.78270 10.87822 36267 ft 419 kts 351°
2026-04-26 21:10 51.84048 10.86834 36273 ft 419 kts 351°
2026-04-26 21:10 51.89885 10.86002 36273 ft 420 kts 352°
2026-04-26 21:11 51.95687 10.85199 36278 ft 420 kts 352°
2026-04-26 21:11 52.01501 10.84383 36283 ft 420 kts 352°
2026-04-26 21:12 52.07296 10.83564 36281 ft 419 kts 352°
2026-04-26 21:12 52.13117 10.82736 36285 ft 419 kts 352°
2026-04-26 21:13 52.18766 10.81954 36283 ft 420 kts 352°
2026-04-26 21:13 52.24469 10.81167 36282 ft 420 kts 352°
2026-04-26 21:14 52.30280 10.80360 36282 ft 420 kts 352°
2026-04-26 21:14 52.36037 10.79221 36285 ft 418 kts 347°
2026-04-26 21:15 52.41704 10.77172 36290 ft 416 kts 343°
2026-04-26 21:15 52.47257 10.74752 36288 ft 416 kts 342°
2026-04-26 21:16 52.52895 10.72266 36290 ft 416 kts 342°
2026-04-26 21:16 52.58454 10.69810 36289 ft 416 kts 343°
2026-04-26 21:17 52.64090 10.67318 36286 ft 416 kts 342°
2026-04-26 21:17 52.69658 10.64850 36285 ft 416 kts 342°
2026-04-26 21:18 52.75223 10.62376 36289 ft 416 kts 342°
2026-04-26 21:18 52.80805 10.59886 36291 ft 416 kts 342°
2026-04-26 21:19 52.86357 10.57412 36295 ft 416 kts 343°
2026-04-26 21:19 52.91930 10.54964 36300 ft 416 kts 343°
2026-04-26 21:20 52.97527 10.52501 36298 ft 416 kts 343°
2026-04-26 21:20 53.03109 10.50031 36301 ft 416 kts 343°
2026-04-26 21:21 53.08668 10.47468 36303 ft 416 kts 340°
2026-04-26 21:21 53.14087 10.44127 36301 ft 414 kts 335°
2026-04-26 21:22 53.18954 10.40205 36301 ft 413 kts 331°
2026-04-26 21:22 53.24111 10.35565 36300 ft 413 kts 330°
2026-04-26 21:23 53.31505 10.28848 36304 ft 413 kts 330°
2026-04-26 21:23 53.36273 10.24503 36301 ft 413 kts 330°
2026-04-26 21:24 53.41247 10.19963 36300 ft 413 kts 330°
2026-04-26 21:24 53.46300 10.15339 36298 ft 414 kts 330°
2026-04-26 21:25 53.51295 10.10754 36304 ft 414 kts 330°
2026-04-26 21:25 53.56208 10.06235 36308 ft 414 kts 330°
2026-04-26 21:26 53.61249 10.01583 36311 ft 414 kts 330°
2026-04-26 21:26 53.66305 9.96905 36311 ft 414 kts 330°
2026-04-26 21:27 53.71359 9.92217 36304 ft 413 kts 329°
2026-04-26 21:27 53.76394 9.87532 36304 ft 414 kts 329°
2026-04-26 21:28 53.81453 9.82812 36300 ft 415 kts 329°
2026-04-26 21:28 53.86522 9.78069 36303 ft 415 kts 329°
2026-04-26 21:29 53.91565 9.73339 36301 ft 415 kts 329°
2026-04-26 21:29 53.96598 9.68602 36302 ft 415 kts 329°
2026-04-26 21:30 54.01674 9.63814 36303 ft 415 kts 329°
2026-04-26 21:30 54.05867 9.59848 36304 ft 415 kts 329°
2026-04-26 21:31 54.11544 9.54465 36307 ft 415 kts 329°
2026-04-26 21:31 54.13686 9.52430 36304 ft 415 kts 329°
2026-04-26 21:32 54.18649 9.47704 36301 ft 415 kts 329°
2026-04-26 21:32 54.23664 9.42913 36300 ft 415 kts 329°
2026-04-26 21:33 54.28681 9.38108 36302 ft 415 kts 329°
2026-04-26 21:33 54.33703 9.33282 36305 ft 415 kts 329°
2026-04-26 21:34 54.38667 9.28501 36310 ft 415 kts 329°
2026-04-26 21:34 54.43706 9.23636 36311 ft 414 kts 329°
2026-04-26 21:35 54.48690 9.18808 36311 ft 415 kts 328°
2026-04-26 21:35 54.53720 9.13922 36316 ft 415 kts 328°
2026-04-26 21:36 54.57888 9.09863 36313 ft 416 kts 328°
2026-04-26 21:36 54.63753 9.04134 36317 ft 416 kts 328°
2026-04-26 21:37 54.68741 8.99246 36316 ft 415 kts 328°
2026-04-26 21:37 54.73758 8.94319 36315 ft 415 kts 328°
2026-04-26 21:38 54.78748 8.89401 36312 ft 416 kts 328°
2026-04-26 21:38 54.83765 8.84438 36308 ft 416 kts 328°
2026-04-26 21:39 54.88826 8.79586 36303 ft 417 kts 331°
2026-04-26 21:39 54.94106 8.75499 36305 ft 419 kts 336°
2026-04-26 21:40 54.99534 8.71813 36305 ft 420 kts 336°
2026-04-26 21:40 55.04952 8.68156 36311 ft 420 kts 336°
2026-04-26 21:41 55.10348 8.64497 36315 ft 420 kts 336°
2026-04-26 21:41 55.15791 8.60788 36307 ft 420 kts 336°
2026-04-26 21:42 55.21234 8.57067 36314 ft 420 kts 336°
2026-04-26 21:42 55.26650 8.53352 36320 ft 420 kts 336°
2026-04-26 21:43 55.32055 8.49635 36318 ft 421 kts 336°
2026-04-26 21:43 55.37506 8.45871 36317 ft 421 kts 336°
2026-04-26 21:44 55.42939 8.42110 36311 ft 421 kts 336°
2026-04-26 21:44 55.48353 8.38349 36319 ft 421 kts 336°
2026-04-26 21:45 55.53764 8.34642 36320 ft 421 kts 337°
2026-04-26 21:45 55.59380 8.31644 36316 ft 424 kts 342°
2026-04-26 21:46 55.65162 8.29644 36310 ft 427 kts 348°
2026-04-26 21:46 55.71072 8.28602 36301 ft 429 kts 352°
2026-04-26 21:47 55.77004 8.27871 36300 ft 429 kts 352°
2026-04-26 21:47 55.82948 8.27139 36298 ft 429 kts 352°
2026-04-26 21:48 55.88871 8.26392 36285 ft 429 kts 352°
2026-04-26 21:48 55.94784 8.25632 36303 ft 430 kts 352°
2026-04-26 21:49 56.00732 8.24867 36281 ft 430 kts 352°
2026-04-26 21:49 56.06681 8.24099 36302 ft 430 kts 352°
2026-04-26 21:50 56.11655 8.23459 36310 ft 430 kts 352°
2026-04-26 21:50 56.18597 8.22563 36131 ft 430 kts 352°
2026-04-26 21:51 56.21564 8.22181 35940 ft 428 kts 352°
2026-04-26 21:51 56.24512 8.21801 35728 ft 426 kts 352°
2026-04-26 21:51 56.27452 8.21419 35505 ft 424 kts 352°
2026-04-26 21:51 56.30384 8.21038 35280 ft 422 kts 352°
2026-04-26 21:52 56.33273 8.20663 35058 ft 421 kts 352°
2026-04-26 21:52 56.36205 8.20278 34832 ft 422 kts 352°
2026-04-26 21:52 56.39111 8.19897 34608 ft 422 kts 352°
2026-04-26 21:52 56.42024 8.19515 34375 ft 422 kts 352°
2026-04-26 21:53 56.44947 8.19130 34143 ft 423 kts 352°
2026-04-26 21:53 56.47890 8.18743 33908 ft 422 kts 352°
2026-04-26 21:53 56.50795 8.18299 33675 ft 421 kts 351°
2026-04-26 21:53 56.53653 8.17821 33357 ft 414 kts 351°
2026-04-26 21:54 56.56483 8.17342 32984 ft 402 kts 351°
2026-04-26 21:54 56.59194 8.16886 32707 ft 387 kts 350°
2026-04-26 21:54 56.61810 8.16447 32470 ft 377 kts 350°
2026-04-26 21:54 56.64442 8.15998 32230 ft 377 kts 350°
2026-04-26 21:55 56.67030 8.15556 31972 ft 377 kts 350°
2026-04-26 21:55 56.69648 8.15111 31551 ft 378 kts 350°
2026-04-26 21:55 56.72232 8.14672 30964 ft 377 kts 350°
2026-04-26 21:55 56.74828 8.14232 30214 ft 378 kts 350°
2026-04-26 21:56 56.77452 8.13786 29427 ft 380 kts 350°
2026-04-26 21:56 56.80061 8.13343 28627 ft 382 kts 350°
2026-04-26 21:56 56.82708 8.12892 27802 ft 384 kts 351°
2026-04-26 21:56 56.85339 8.12444 27079 ft 386 kts 351°
2026-04-26 21:57 56.88025 8.11988 26576 ft 388 kts 351°
2026-04-26 21:57 56.90696 8.11533 26052 ft 389 kts 351°
2026-04-26 21:57 56.93392 8.11073 25507 ft 391 kts 351°
2026-04-26 21:57 56.96098 8.10611 24966 ft 392 kts 351°
2026-04-26 21:58 56.98772 8.10154 24427 ft 393 kts 351°
2026-04-26 21:58 57.01501 8.09686 23869 ft 394 kts 351°
2026-04-26 21:58 57.04229 8.09220 23311 ft 396 kts 351°
2026-04-26 21:58 57.06943 8.08755 22751 ft 396 kts 351°
2026-04-26 21:59 57.09656 8.08293 22207 ft 387 kts 351°
2026-04-26 21:59 57.12336 8.07834 21843 ft 383 kts 351°
2026-04-26 21:59 57.14991 8.07375 21476 ft 380 kts 351°
2026-04-26 21:59 57.17569 8.06931 20854 ft 373 kts 351°
2026-04-26 22:00 57.20118 8.06489 20091 ft 370 kts 351°
2026-04-26 22:00 57.22677 8.06042 19468 ft 368 kts 351°
2026-04-26 22:00 57.25200 8.05604 18894 ft 365 kts 352°
2026-04-26 22:00 57.27709 8.05404 18337 ft 364 kts 357°
2026-04-26 22:01 57.30219 8.05640 17777 ft 364 kts
2026-04-26 22:01 57.32709 8.06309 17206 ft 362 kts
2026-04-26 22:01 57.35182 8.07186 16655 ft 360 kts
2026-04-26 22:01 57.37606 8.08083 16115 ft 357 kts
2026-04-26 22:02 57.39991 8.08972 15586 ft 347 kts
2026-04-26 22:02 57.41562 8.09557 15236 ft 341 kts
2026-04-26 22:02 57.44619 8.10688 14521 ft 337 kts
2026-04-26 22:02 57.46902 8.11529 13993 ft 334 kts
2026-04-26 22:03 57.49150 8.12359 13474 ft 331 kts
2026-04-26 22:03 57.51385 8.13186 12974 ft 326 kts
2026-04-26 22:03 57.53580 8.14002 12507 ft 316 kts
2026-04-26 22:03 57.55695 8.14788 12113 ft 305 kts
2026-04-26 22:04 57.57709 8.15539 11901 ft 290 kts
2026-04-26 22:04 57.59653 8.16118 11684 ft 276 kts
2026-04-26 22:04 57.61528 8.16425 11475 ft 273 kts 359°
2026-04-26 22:04 57.63403 8.16507 11282 ft 271 kts 357°
2026-04-26 22:05 57.65302 8.16526 11116 ft 269 kts 357°
2026-04-26 22:05 57.67151 8.16539 10912 ft 264 kts 357°
2026-04-26 22:05 57.68946 8.16553 10797 ft 259 kts 357°
2026-04-26 22:05 57.70746 8.16566 10606 ft 260 kts 357°
2026-04-26 22:06 57.72561 8.16578 10234 ft 260 kts 357°
2026-04-26 22:06 57.74361 8.16591 9880 ft 260 kts 357°
2026-04-26 22:06 57.76158 8.16606 9531 ft 260 kts 358°
2026-04-26 22:06 57.77960 8.16621 9179 ft 260 kts 358°
2026-04-26 22:07 57.79760 8.16639 8835 ft 260 kts 358°
2026-04-26 22:07 57.81567 8.16656 8490 ft 260 kts 358°
2026-04-26 22:07 57.83368 8.16673 8144 ft 259 kts 358°
2026-04-26 22:07 57.84555 8.16683 7914 ft 259 kts 358°
2026-04-26 22:08 57.86959 8.16705 7453 ft 258 kts 358°
2026-04-26 22:08 57.88746 8.16720 7103 ft 258 kts 358°
2026-04-26 22:08 57.90528 8.16678 6821 ft 254 kts 352°
2026-04-26 22:08 57.92131 8.15557 6535 ft 249 kts 323°
2026-04-26 22:09 57.93279 8.13188 6282 ft 247 kts 306°
2026-04-26 22:09 57.94246 8.10548 6003 ft 242 kts 306°
2026-04-26 22:09 57.95192 8.07972 5691 ft 238 kts 307°
2026-04-26 22:09 57.96134 8.05428 5326 ft 235 kts 307°
2026-04-26 22:10 57.97068 8.02923 4898 ft 235 kts 307°
2026-04-26 22:10 57.98002 8.00422 4457 ft 237 kts 307°
2026-04-26 22:10 57.98948 7.97887 4085 ft 236 kts 308°
2026-04-26 22:10 57.99884 7.95376 3766 ft 237 kts 308°
2026-04-26 22:11 58.00831 7.92834 3450 ft 238 kts 308°
2026-04-26 22:11 58.01800 7.90277 3132 ft 240 kts 314°
2026-04-26 22:11 58.03116 7.88575 2948 ft 227 kts 347°
2026-04-26 22:11 58.04661 7.88511 2951 ft 222 kts 15°
2026-04-26 22:12 58.06043 7.89606 2953 ft 208 kts 31°
2026-04-26 22:12 58.07222 7.91000 2946 ft 198 kts 34°
2026-04-26 22:12 58.08340 7.92457 2943 ft 188 kts 36°
2026-04-26 22:12 58.09390 7.93865 2968 ft 185 kts 36°
2026-04-26 22:13 58.10440 7.95273 2675 ft 186 kts 36°
2026-04-26 22:13 58.11483 7.96666 2372 ft 186 kts 35°
2026-04-26 22:13 58.12512 7.98034 2067 ft 177 kts 35°
2026-04-26 22:13 58.13486 7.99327 1809 ft 166 kts 35°
2026-04-26 22:14 58.14396 8.00537 1564 ft 154 kts 35°
2026-04-26 22:14 58.15245 8.01661 1310 ft 142 kts 35°
2026-04-26 22:14 58.15469 8.01959 1245 ft 139 kts 36°
2026-04-26 22:14 58.16210 8.02944 1031 ft 130 kts 36°
2026-04-26 22:15 58.16943 8.03920 777 ft 129 kts 35°
2026-04-26 22:15 58.17690 8.04895 597 ft 135 kts 35°
2026-04-26 22:15 58.18430 8.05891 392 ft 125 kts 36°
2026-04-26 22:15 58.18841 8.06427 252 ft 120 kts 36°
2026-04-26 22:16 58.18850 8.06440 249 ft 120 kts 36°
2026-04-26 22:16 58.19323 8.07071 135 ft 110 kts 36°
2026-04-26 22:16 58.19981 8.07947 42 ft 96 kts 36°
2026-04-26 22:16 58.20324 8.08405 44 ft 34 kts 36°
2026-04-26 22:17 58.20416 8.08504 45 ft 8 kts 322°
2026-04-26 22:17 58.20427 8.08382 45 ft 10 kts 291°
2026-04-26 22:17 58.20470 8.08252 45 ft 12 kts 298°
2026-04-26 22:17 58.20461 8.08127 45 ft 6 kts 235°
2026-04-26 22:18 58.20456 8.08116 45 ft 6 kts 234°
2026-04-26 22:18 58.20424 8.08037 44 ft 9 kts 231°
2026-04-26 22:18 58.20377 8.07927 43 ft 12 kts 231°
2026-04-26 22:18 58.20322 8.07787 43 ft 10 kts 232°
2026-04-26 22:19 58.20280 8.07710 43 ft 4 kts 217°
2026-04-26 22:19 58.20265 8.07664 42 ft 3 kts 275°
2026-04-26 22:19 58.20275 8.07617 43 ft 4 kts 299°
2026-04-26 22:19 58.20280 8.07600 43 ft 0 kts 301°
2026-04-26 22:20 58.20283 8.07593 43 ft 0 kts 301°
2026-04-26 22:20 58.20283 8.07591 43 ft 0 kts 301°
2026-04-26 22:20 58.20282 8.07595 43 ft 0 kts 301°